Location: Leipzig
(51.3392°N, 12.3528°E)
Time: 00:34:18
(UTC+01:00)

N. Korean satellite - Visible Passes

Search period start: 13 December 2017 00:00
Search period end: 23 December 2017 00:00
Orbit: 461 x 513 km, 97.2° (Epoch: 11 December)

Date Brightness Start Highest point End Pass type
(mag) Time Alt. Az. Time Alt. Az. Time Alt. Az.
13 Dec 10.0 05:52:29 10° ENE 05:54:23 13° E 05:56:15 10° ESE visible
13 Dec 6.7 07:24:35 10° N 07:28:19 63° WNW 07:31:58 10° SSW visible
13 Dec 6.8 18:05:25 10° S 18:09:08 75° WSW 18:12:55 10° NNW visible
14 Dec 7.0 07:01:01 10° NNE 07:04:46 71° E 07:08:26 10° S visible
14 Dec 6.6 17:41:55 10° SSE 17:45:35 60° ENE 17:49:19 10° N visible
14 Dec 9.9 19:17:26 10° WSW 19:19:29 14° W 19:21:34 10° NW visible
15 Dec 8.2 06:37:36 10° NNE 06:41:08 38° E 06:44:36 10° SSE visible
15 Dec 7.3 17:18:43 10° SE 17:22:07 34° ENE 17:25:34 10° N visible
15 Dec 9.1 18:52:38 10° SSW 18:55:43 24° W 18:58:49 10° NW visible
16 Dec 9.3 06:14:27 10° NE 06:17:25 22° E 06:20:20 10° SE visible
16 Dec 7.9 16:55:52 10° ESE 16:58:44 21° ENE 17:01:37 10° NNE visible
16 Dec 8.0 18:28:27 10° S 18:32:00 41° W 18:35:37 10° NNW visible
17 Dec 10.0 05:51:50 10° ENE 05:53:37 13° E 05:55:24 10° ESE visible
17 Dec 6.6 07:23:52 10° N 07:27:34 64° WNW 07:31:11 10° SSW visible
17 Dec 6.8 18:04:38 10° S 18:08:23 76° WSW 18:12:11 10° NNW visible
18 Dec 7.0 07:00:17 10° NNE 07:04:01 70° ESE 07:07:39 10° S visible
18 Dec 6.6 17:41:09 10° SSE 17:44:50 60° ENE 17:48:34 10° N visible
18 Dec 9.9 19:16:37 10° WSW 19:18:44 14° W 19:20:50 10° NW visible
19 Dec 8.3 06:36:53 10° NNE 06:40:22 38° E 06:43:46 10° SSE visible
19 Dec 7.3 17:17:57 10° SE 17:21:21 34° ENE 17:24:48 10° N visible
19 Dec 9.0 18:51:50 10° SSW 18:54:56 24° W 18:58:04 10° NW visible
20 Dec 9.3 06:13:42 10° NE 06:16:38 22° E 06:19:30 10° SE visible
20 Dec 7.9 16:55:06 10° ESE 16:57:57 21° ENE 17:00:49 10° NNE visible
20 Dec 8.0 18:27:39 10° S 18:31:14 42° W 18:34:50 10° NNW visible
21 Dec 10.0 05:51:08 10° ENE 05:52:49 13° E 05:54:29 10° ESE visible
21 Dec 6.6 07:23:05 10° N 07:26:46 64° WNW 07:30:21 10° SSW visible
21 Dec 6.8 18:03:50 10° S 18:07:35 77° WSW 18:11:23 10° NNW visible
22 Dec 7.0 06:59:30 10° NNE 07:03:12 69° ESE 07:06:47 10° S visible
22 Dec 6.7 17:40:20 10° SSE 17:44:02 59° ENE 17:47:46 10° N visible
22 Dec 9.8 19:15:46 10° WSW 19:17:55 15° W 19:20:04 10° NW visible
